Time,TemperatureF,DewpointF,PressureIn,WindDirection,WindDirectionDegrees,WindSpeedMPH,WindSpeedGustMPH,Humidity,HourlyPrecipIn,Conditions,Clouds,dailyrainin,SoftwareType,DateUTC
2013-08-27 00:00:00,81.5,73.3,29.87,South,180,0.4,0.4,76,0.00,,,0.00,WUHU216HW,2013-08-27 05:00:00,
2013-08-27 00:05:00,81.5,73.3,29.87,South,180,0.4,0.4,76,0.00,,,0.00,WUHU216HW,2013-08-27 05:05:00,
2013-08-27 00:30:00,80.8,73.0,29.87,South,180,0.4,0.4,77,0.00,,,0.00,WUHU216HW,2013-08-27 05:30:00,
2013-08-27 00:35:00,80.8,73.0,29.87,South,180,0.4,0.4,77,0.00,,,0.00,WUHU216HW,2013-08-27 05:35:00,
2013-08-27 00:59:00,80.5,73.0,29.86,SSE,158,0.9,0.9,78,0.00,,,0.00,WUHU216HW,2013-08-27 05:59:00,
2013-08-27 01:00:00,80.5,73.0,29.86,SSE,158,0.9,0.9,78,0.00,,,0.00,WUHU216HW,2013-08-27 06:00:00,
2013-08-27 01:05:00,80.5,73.0,29.86,SSE,158,0.9,0.9,78,0.00,,,0.00,WUHU216HW,2013-08-27 06:05:00,
2013-08-27 01:30:00,80.3,73.3,29.85,WSW,248,1.3,1.3,79,0.00,,,0.00,WUHU216HW,2013-08-27 06:30:00,
2013-08-27 01:35:00,80.3,73.3,29.85,WSW,248,1.3,1.3,79,0.00,,,0.00,WUHU216HW,2013-08-27 06:35:00,
2013-08-27 02:00:00,80.1,73.4,29.84,WNW,293,2.5,2.5,80,0.00,,,0.00,WUHU216HW,2013-08-27 07:00:00,
2013-08-27 02:05:00,80.1,73.4,29.84,WNW,293,2.5,2.5,80,0.00,,,0.00,WUHU216HW,2013-08-27 07:05:00,
2013-08-27 02:29:00,79.6,73.3,29.83,SSW,203,1.8,1.8,81,0.00,,,0.00,WUHU216HW,2013-08-27 07:29:00,
2013-08-27 02:30:00,79.6,73.3,29.83,SSW,203,1.8,1.8,81,0.00,,,0.00,WUHU216HW,2013-08-27 07:30:00,
2013-08-27 02:35:00,79.6,73.3,29.83,SSW,203,1.8,1.8,81,0.00,,,0.00,WUHU216HW,2013-08-27 07:35:00,
2013-08-27 03:00:00,79.2,72.9,29.82,WSW,248,2.2,2.2,81,0.00,,,0.00,WUHU216HW,2013-08-27 08:00:00,
2013-08-27 03:05:00,79.2,72.9,29.82,WSW,248,2.2,2.2,81,0.00,,,0.00,WUHU216HW,2013-08-27 08:05:00,
2013-08-27 03:29:00,78.8,72.9,29.83,South,180,2.7,2.7,82,0.00,,,0.00,WUHU216HW,2013-08-27 08:29:00,
2013-08-27 03:30:00,78.8,72.9,29.83,South,180,2.7,2.7,82,0.00,,,0.00,WUHU216HW,2013-08-27 08:30:00,
2013-08-27 03:35:00,78.8,72.9,29.83,South,180,2.7,2.7,82,0.00,,,0.00,WUHU216HW,2013-08-27 08:35:00,
2013-08-27 04:00:00,78.1,72.2,29.83,WSW,248,1.6,1.6,82,0.00,,,0.00,WUHU216HW,2013-08-27 09:00:00,
2013-08-27 04:05:00,78.1,72.2,29.83,WSW,248,1.6,1.6,82,0.00,,,0.00,WUHU216HW,2013-08-27 09:05:00,
2013-08-27 04:30:00,77.8,72.2,29.82,South,180,1.6,1.6,83,0.00,,,0.00,WUHU216HW,2013-08-27 09:30:00,
2013-08-27 04:35:00,77.8,72.2,29.82,South,180,1.6,1.6,83,0.00,,,0.00,WUHU216HW,2013-08-27 09:35:00,
2013-08-27 05:00:00,77.4,71.8,29.82,WSW,248,2.0,2.0,83,0.00,,,0.00,WUHU216HW,2013-08-27 10:00:00,
2013-08-27 05:05:00,77.4,71.8,29.82,WSW,248,2.0,2.0,83,0.00,,,0.00,WUHU216HW,2013-08-27 10:05:00,
2013-08-27 05:30:00,76.3,71.5,29.82,SW,225,0.0,0.0,85,0.00,,,0.00,WUHU216HW,2013-08-27 10:30:00,
2013-08-27 05:35:00,76.3,71.5,29.82,SW,225,0.0,0.0,85,0.00,,,0.00,WUHU216HW,2013-08-27 10:35:00,
2013-08-27 06:00:00,75.6,71.5,29.83,North,0,0.7,0.7,87,0.00,,,0.00,WUHU216HW,2013-08-27 11:00:00,
2013-08-27 06:05:00,75.6,71.5,29.83,North,0,0.7,0.7,87,0.00,,,0.00,WUHU216HW,2013-08-27 11:05:00,
2013-08-27 06:30:00,74.7,70.9,29.83,ESE,113,0.0,0.0,88,0.00,,,0.00,WUHU216HW,2013-08-27 11:30:00,
2013-08-27 06:35:00,74.7,70.9,29.83,ESE,113,0.0,0.0,88,0.00,,,0.00,WUHU216HW,2013-08-27 11:35:00,
2013-08-27 07:00:00,74.5,71.1,29.84,ESE,113,0.9,0.9,89,0.00,,,0.00,WUHU216HW,2013-08-27 12:00:00,
2013-08-27 07:05:00,74.5,71.1,29.84,ESE,113,0.9,0.9,89,0.00,,,0.00,WUHU216HW,2013-08-27 12:05:00,
2013-08-27 07:30:00,75.6,72.2,29.84,North,0,1.3,1.3,89,0.00,,,0.00,WUHU216HW,2013-08-27 12:30:00,
2013-08-27 07:35:00,75.6,72.2,29.84,North,0,1.3,1.3,89,0.00,,,0.00,WUHU216HW,2013-08-27 12:35:00,
2013-08-27 08:00:00,77.9,73.8,29.84,ESE,113,0.2,0.2,87,0.00,,,0.00,WUHU216HW,2013-08-27 13:00:00,
2013-08-27 08:05:00,77.9,73.8,29.84,ESE,113,0.2,0.2,87,0.00,,,0.00,WUHU216HW,2013-08-27 13:05:00,
2013-08-27 08:30:00,83.9,74.7,29.84,SW,225,1.3,1.3,74,0.00,,,0.00,WUHU216HW,2013-08-27 13:30:00,
2013-08-27 08:35:00,83.9,74.7,29.84,SW,225,1.3,1.3,74,0.00,,,0.00,WUHU216HW,2013-08-27 13:35:00,
2013-08-27 09:00:00,86.4,74.6,29.84,SW,225,2.2,2.2,68,0.00,,,0.00,WUHU216HW,2013-08-27 14:00:00,
2013-08-27 09:05:00,86.4,74.6,29.84,SW,225,2.2,2.2,68,0.00,,,0.00,WUHU216HW,2013-08-27 14:05:00,
2013-08-27 09:30:00,87.5,74.3,29.85,North,0,1.1,1.1,65,0.00,,,0.00,WUHU216HW,2013-08-27 14:30:00,
2013-08-27 09:35:00,87.5,74.3,29.85,North,0,1.1,1.1,65,0.00,,,0.00,WUHU216HW,2013-08-27 14:35:00,
2013-08-27 09:59:00,91.6,75.8,29.84,NW,315,1.8,1.8,60,0.00,,,0.00,WUHU216HW,2013-08-27 14:59:00,
2013-08-27 10:00:00,91.6,75.8,29.84,NW,315,1.8,1.8,60,0.00,,,0.00,WUHU216HW,2013-08-27 15:00:00,
2013-08-27 10:05:00,91.6,75.8,29.84,NW,315,1.8,1.8,60,0.00,,,0.00,WUHU216HW,2013-08-27 15:05:00,
2013-08-27 10:30:00,90.5,75.2,29.84,SSW,203,0.4,0.4,61,0.00,,,0.00,WUHU216HW,2013-08-27 15:30:00,
2013-08-27 10:35:00,90.5,75.2,29.84,SSW,203,0.4,0.4,61,0.00,,,0.00,WUHU216HW,2013-08-27 15:35:00,
2013-08-27 10:59:00,91.3,75.4,29.85,NNW,338,1.3,1.3,60,0.00,,,0.00,WUHU216HW,2013-08-27 15:59:00,
2013-08-27 11:00:00,91.3,75.4,29.85,NNW,338,1.3,1.3,60,0.00,,,0.00,WUHU216HW,2013-08-27 16:00:00,
2013-08-27 11:05:00,91.3,75.4,29.85,NNW,338,1.3,1.3,60,0.00,,,0.00,WUHU216HW,2013-08-27 16:05:00,
2013-08-27 11:29:00,90.5,75.7,29.85,NNW,338,5.4,5.4,62,0.00,,,0.00,WUHU216HW,2013-08-27 16:29:00,
2013-08-27 11:30:00,90.5,75.7,29.85,NNW,338,5.4,5.4,62,0.00,,,0.00,WUHU216HW,2013-08-27 16:30:00,
2013-08-27 11:35:00,90.5,75.7,29.85,NNW,338,5.4,5.4,62,0.00,,,0.00,WUHU216HW,2013-08-27 16:35:00,
2013-08-27 11:59:00,88.0,75.3,29.86,North,0,6.9,6.9,66,0.00,,,0.00,WUHU216HW,2013-08-27 16:59:00,
2013-08-27 12:00:00,88.0,75.3,29.86,North,0,6.9,6.9,66,0.00,,,0.00,WUHU216HW,2013-08-27 17:00:00,
2013-08-27 12:05:00,88.0,75.3,29.86,North,0,6.9,6.9,66,0.00,,,0.00,WUHU216HW,2013-08-27 17:05:00,
2013-08-27 12:30:00,89.8,76.1,29.86,North,0,6.9,6.9,64,0.00,,,0.00,WUHU216HW,2013-08-27 17:30:00,
2013-08-27 12:35:00,89.8,76.1,29.86,North,0,6.9,6.9,64,0.00,,,0.00,WUHU216HW,2013-08-27 17:35:00,
2013-08-27 12:59:00,87.8,74.6,29.86,North,0,9.2,9.2,65,0.00,,,0.00,WUHU216HW,2013-08-27 17:59:00,
2013-08-27 13:00:00,87.8,74.6,29.86,North,0,9.2,9.2,65,0.00,,,0.00,WUHU216HW,2013-08-27 18:00:00,
2013-08-27 13:05:00,87.8,74.6,29.86,North,0,9.2,9.2,65,0.00,,,0.00,WUHU216HW,2013-08-27 18:05:00,
2013-08-27 13:30:00,89.3,75.5,29.86,NNE,23,3.6,3.6,64,0.00,,,0.00,WUHU216HW,2013-08-27 18:30:00,
2013-08-27 13:35:00,89.3,75.5,29.86,NNE,23,3.6,3.6,64,0.00,,,0.00,WUHU216HW,2013-08-27 18:35:00,
2013-08-27 13:59:00,90.4,75.1,29.86,NNE,23,1.3,1.3,61,0.00,,,0.00,WUHU216HW,2013-08-27 18:59:00,
2013-08-27 14:00:00,90.4,75.1,29.86,NNE,23,1.3,1.3,61,0.00,,,0.00,WUHU216HW,2013-08-27 19:00:00,
2013-08-27 14:05:00,90.4,75.1,29.86,NNE,23,1.3,1.3,61,0.00,,,0.00,WUHU216HW,2013-08-27 19:05:00,
2013-08-27 14:30:00,92.9,75.4,29.85,NW,315,2.5,2.5,57,0.00,,,0.00,WUHU216HW,2013-08-27 19:30:00,
2013-08-27 14:35:00,92.9,75.4,29.85,NW,315,2.5,2.5,57,0.00,,,0.00,WUHU216HW,2013-08-27 19:35:00,
2013-08-27 14:59:00,93.4,75.3,29.86,North,0,4.0,4.0,56,0.00,,,0.00,WUHU216HW,2013-08-27 19:59:00,
2013-08-27 15:00:00,93.4,75.3,29.86,North,0,4.0,4.0,56,0.00,,,0.00,WUHU216HW,2013-08-27 20:00:00,
2013-08-27 15:05:00,93.4,75.3,29.86,North,0,4.0,4.0,56,0.00,,,0.00,WUHU216HW,2013-08-27 20:05:00,
2013-08-27 15:30:00,94.1,75.4,29.85,NNW,338,5.1,5.1,55,0.00,,,0.00,WUHU216HW,2013-08-27 20:30:00,
2013-08-27 15:35:00,94.1,75.4,29.85,NNW,338,5.1,5.1,55,0.00,,,0.00,WUHU216HW,2013-08-27 20:35:00,
2013-08-27 15:59:00,95.0,74.7,29.86,ESE,113,4.0,4.0,52,0.00,,,0.00,WUHU216HW,2013-08-27 20:59:00,
2013-08-27 16:00:00,95.0,74.7,29.86,ESE,113,4.0,4.0,52,0.00,,,0.00,WUHU216HW,2013-08-27 21:00:00,
2013-08-27 16:05:00,95.0,74.7,29.86,ESE,113,4.0,4.0,52,0.00,,,0.00,WUHU216HW,2013-08-27 21:05:00,
2013-08-27 16:30:00,94.7,74.9,29.86,NNE,23,4.0,4.0,53,0.00,,,0.00,WUHU216HW,2013-08-27 21:30:00,
2013-08-27 16:35:00,94.7,74.9,29.86,NNE,23,4.0,4.0,53,0.00,,,0.00,WUHU216HW,2013-08-27 21:35:00,
2013-08-27 16:59:00,94.1,73.8,29.87,North,0,4.0,4.0,52,0.00,,,0.00,WUHU216HW,2013-08-27 21:59:00,
2013-08-27 17:00:00,94.1,73.8,29.87,North,0,4.0,4.0,52,0.00,,,0.00,WUHU216HW,2013-08-27 22:00:00,
2013-08-27 17:05:00,94.1,73.8,29.87,North,0,4.0,4.0,52,0.00,,,0.00,WUHU216HW,2013-08-27 22:05:00,
2013-08-27 17:30:00,93.1,72.8,29.87,ENE,68,6.7,6.7,52,0.00,,,0.00,WUHU216HW,2013-08-27 22:30:00,
2013-08-27 17:35:00,93.1,72.8,29.87,ENE,68,6.7,6.7,52,0.00,,,0.00,WUHU216HW,2013-08-27 22:35:00,
2013-08-27 18:00:00,93.4,73.1,29.88,North,0,4.7,4.7,52,0.00,,,0.00,WUHU216HW,2013-08-27 23:00:00,
2013-08-27 18:05:00,93.4,73.1,29.88,North,0,4.7,4.7,52,0.00,,,0.00,WUHU216HW,2013-08-27 23:05:00,
2013-08-27 18:30:00,92.3,73.2,29.88,NNW,338,2.7,2.7,54,0.00,,,0.00,WUHU216HW,2013-08-27 23:30:00,
2013-08-27 18:35:00,92.3,73.2,29.88,NNW,338,2.7,2.7,54,0.00,,,0.00,WUHU216HW,2013-08-27 23:35:00,
2013-08-27 19:00:00,91.3,72.7,29.89,North,0,2.7,2.7,55,0.00,,,0.00,WUHU216HW,2013-08-28 00:00:00,
2013-08-27 19:05:00,91.3,72.7,29.89,North,0,2.7,2.7,55,0.00,,,0.00,WUHU216HW,2013-08-28 00:05:00,
2013-08-27 19:30:00,86.9,72.4,29.89,North,0,4.0,4.0,62,0.00,,,0.00,WUHU216HW,2013-08-28 00:30:00,
2013-08-27 19:35:00,86.9,72.4,29.89,North,0,4.0,4.0,62,0.00,,,0.00,WUHU216HW,2013-08-28 00:35:00,
2013-08-27 20:00:00,82.8,71.6,29.91,NNE,23,3.6,3.6,69,0.00,,,0.00,WUHU216HW,2013-08-28 01:00:00,
2013-08-27 20:05:00,82.8,71.6,29.91,NNE,23,3.6,3.6,69,0.00,,,0.00,WUHU216HW,2013-08-28 01:05:00,
2013-08-27 20:30:00,80.5,70.7,29.92,ENE,68,3.6,3.6,72,0.00,,,0.00,WUHU216HW,2013-08-28 01:30:00,
2013-08-27 20:35:00,80.5,70.7,29.92,ENE,68,3.6,3.6,72,0.00,,,0.00,WUHU216HW,2013-08-28 01:35:00,
2013-08-27 20:59:00,78.8,69.9,29.93,ENE,68,1.8,1.8,74,0.00,,,0.00,WUHU216HW,2013-08-28 01:59:00,
2013-08-27 21:00:00,78.8,69.9,29.93,ENE,68,1.8,1.8,74,0.00,,,0.00,WUHU216HW,2013-08-28 02:00:00,
2013-08-27 21:05:00,78.8,69.9,29.93,ENE,68,1.8,1.8,74,0.00,,,0.00,WUHU216HW,2013-08-28 02:05:00,
2013-08-27 21:30:00,77.0,68.9,29.93,East,90,0.4,0.4,76,0.00,,,0.00,WUHU216HW,2013-08-28 02:30:00,
2013-08-27 21:35:00,77.0,68.9,29.93,East,90,0.4,0.4,76,0.00,,,0.00,WUHU216HW,2013-08-28 02:35:00,
2013-08-27 22:00:00,75.2,69.1,29.93,ENE,68,0.0,0.0,81,0.00,,,0.00,WUHU216HW,2013-08-28 03:00:00,
2013-08-27 22:05:00,75.2,69.1,29.93,ENE,68,0.0,0.0,81,0.00,,,0.00,WUHU216HW,2013-08-28 03:05:00,
2013-08-27 22:30:00,72.9,67.2,29.94,North,0,0.0,0.0,82,0.00,,,0.00,WUHU216HW,2013-08-28 03:30:00,
2013-08-27 22:35:00,72.9,67.2,29.94,North,0,0.0,0.0,82,0.00,,,0.00,WUHU216HW,2013-08-28 03:35:00,
2013-08-27 22:59:00,71.5,66.3,29.95,NNE,23,0.0,0.0,84,0.00,,,0.00,WUHU216HW,2013-08-28 03:59:00,
2013-08-27 23:00:00,71.5,66.3,29.95,NNE,23,0.0,0.0,84,0.00,,,0.00,WUHU216HW,2013-08-28 04:00:00,
2013-08-27 23:01:00,71.5,66.3,29.95,NNE,23,0.0,0.0,84,0.00,,,0.00,WUHU216HW,2013-08-28 04:01:00,
2013-08-27 23:06:00,71.5,66.3,29.95,NNE,23,0.0,0.0,84,0.00,,,0.00,WUHU216HW,2013-08-28 04:06:00,
2013-08-27 23:30:00,70.7,66.7,29.95,North,0,0.0,0.0,87,0.00,,,0.00,WUHU216HW,2013-08-28 04:30:00,
2013-08-27 23:35:00,70.7,66.7,29.95,North,0,0.0,0.0,87,0.00,,,0.00,WUHU216HW,2013-08-28 04:35:00,
2013-08-27 23:59:00,70.0,66.2,29.95,North,0,0.0,0.0,88,0.00,,,0.00,WUHU216HW,2013-08-28 04:59:00,